Weather History for Howell, MI

Change the Weather History Date:

Friday, October 7, 2011

  Actual Average Record
Temperature  
Mean Temperature 64 °F -  
Max Temperature 77 °F 63 °F 89 °F (2007)
Min Temperature 50 °F 43 °F 30 °F (2001)
Degree Days  
Heating Degree Days 2    
Growing Degree Days 14 (Base 50)    
Moisture  
Dew Point 53 °F    
Average Humidity 74    
Maximum Humidity 100    
Minimum Humidity 41    
Precipitation  
Precipitation 0.00 in - - ()
Sea Level Pressure  
Sea Level Pressure 30.36 in    
Wind  
Wind Speed 4 mph (SSE)    
Max Wind Speed 12 mph    
Max Gust Speed -    
Visibility 6 miles    
Events Fog , Rain    
Averages and records for this station are not official NWS values.
T = Trace of Precipitation, MM = Missing Value Source: NWS Daily Summary

Daily Weather History Graph

Daily Weather History Graph

Search for Another Location

Airport:

Trip Planner

Search our weather history database for the weather conditions in past years. The results will help you decide how hot, cold, wet, or windy it might be!

Date:

Astronomy

Oct. 07, 2011 Rise Set
Actual Time 7:39 AM EDT 7:07 PM EDT
Civil Twilight 7:11 AM EDT 7:35 PM EDT
Nautical Twilight 6:38 AM EDT 8:08 PM EDT
Astronomical Twilight 6:05 AM EDT 8:40 PM EDT
Moon 4:54 PM EDT (10/7) 3:22 AM EDT (10/7)
Length of Visible Light 12h 24m
Length of Day
11h 27m
Waxing Gibbous, 83% of the Moon is Illuminated
Oct 7
Waxing Gibbous
Oct 11
Full
Oct 19
Last Quarter
Oct 26
New
Nov 2
First Quarter

Hourly Weather History & Observations

Time (EDT) Temp. Dew Point Humidity Pressure Visibility Wind Dir Wind Speed Gust Speed Precip Events Conditions
12:14 AM 55.4 °F 51.8 °F 88% 30.32 in 10.0 mi SE 4.6 mph - N/A   Clear
12:34 AM 55.4 °F 51.8 °F 88% 30.32 in 10.0 mi SE 4.6 mph - N/A   Clear
12:54 AM 55.4 °F 51.8 °F 88% 30.32 in 7.0 mi Calm Calm - N/A   Clear
1:14 AM 55.4 °F 51.8 °F 88% 30.32 in 7.0 mi SSE 3.5 mph - N/A   Clear
1:34 AM 53.6 °F 53.6 °F 100% 30.32 in 7.0 mi SE 4.6 mph - N/A   Clear
1:54 AM 55.4 °F 53.6 °F 94% 30.33 in 5.0 mi SSE 3.5 mph - N/A   Clear
2:14 AM 53.6 °F 51.8 °F 94% 30.33 in 5.0 mi SE 3.5 mph - N/A   Clear
2:34 AM 53.6 °F 51.8 °F 94% 30.33 in 4.0 mi SE 3.5 mph - N/A   Clear
2:54 AM 53.6 °F 51.8 °F 94% 30.34 in 3.0 mi Calm Calm - N/A   Clear
3:34 AM 53.6 °F 51.8 °F 94% 30.34 in 0.5 mi Calm Calm - N/A Fog Fog
3:54 AM 53.6 °F 51.8 °F 94% 30.34 in 0.5 mi Calm Calm - N/A Fog Fog
4:14 AM 51.8 °F 51.8 °F 100% 30.34 in 0.2 mi SE 4.6 mph - N/A Fog Fog
4:34 AM 51.8 °F 51.8 °F 100% 30.34 in 0.8 mi SE 4.6 mph - N/A   Mist
4:54 AM 53.6 °F 51.8 °F 94% 30.35 in 1.5 mi SE 3.5 mph - N/A   Mist
5:14 AM 51.8 °F 51.8 °F 100% 30.35 in 0.5 mi SE 3.5 mph - N/A Fog Fog
5:35 AM 51.8 °F 51.8 °F 100% 30.35 in 0.2 mi Calm Calm - N/A Fog Fog
5:54 AM 50.0 °F 50.0 °F 100% 30.36 in 0.2 mi SE 4.6 mph - N/A Fog Fog
6:14 AM 51.8 °F 51.8 °F 100% 30.36 in 0.5 mi ESE 4.6 mph - N/A Rain Light Rain
6:34 AM 51.8 °F 51.8 °F 100% 30.36 in 0.5 mi SE 3.5 mph - N/A Fog Fog
6:54 AM 51.8 °F 50.0 °F 94% 30.36 in 0.2 mi SE 3.5 mph - N/A Fog Fog
7:14 AM 51.8 °F 51.8 °F 100% 30.37 in 0.2 mi SE 3.5 mph - N/A Fog Fog
7:34 AM 51.8 °F 51.8 °F 100% 30.37 in 0.8 mi ESE 3.5 mph - N/A   Mist
7:54 AM 51.8 °F 51.8 °F 100% 30.38 in 0.5 mi ESE 3.5 mph - N/A Fog Fog
8:34 AM 53.6 °F 53.6 °F 100% 30.40 in 1.5 mi Calm Calm - N/A   Mist
8:54 AM 55.4 °F 55.4 °F 100% 30.40 in 1.8 mi Calm Calm - N/A   Mist
9:14 AM 57.2 °F 57.2 °F 100% 30.40 in 3.0 mi Calm Calm - N/A   Clear
9:34 AM 59.0 °F 59.0 °F 100% 30.40 in 5.0 mi Calm Calm - N/A   Clear
9:54 AM 62.6 °F 59.0 °F 88% 30.40 in 7.0 mi Calm Calm - N/A   Clear
10:14 AM 64.4 °F 57.2 °F 77% 30.40 in 7.0 mi South 4.6 mph - N/A   Clear
10:34 AM 66.2 °F 55.4 °F 68% 30.41 in 10.0 mi Calm Calm - N/A   Clear
10:54 AM 68.0 °F 55.4 °F 64% 30.41 in 10.0 mi South 3.5 mph - N/A   Clear
11:14 AM 69.8 °F 55.4 °F 60% 30.41 in 10.0 mi SSW 3.5 mph - N/A   Clear
11:34 AM 71.6 °F 55.4 °F 57% 30.41 in 10.0 mi South 3.5 mph - N/A   Clear
11:54 AM 71.6 °F 55.4 °F 57% 30.41 in 10.0 mi Calm Calm - N/A   Clear
12:15 PM 73.4 °F 53.6 °F 50% 30.41 in 10.0 mi SW 4.6 mph - N/A   Clear
12:34 PM 73.4 °F 53.6 °F 50% 30.40 in 10.0 mi Calm Calm - N/A   Clear
12:54 PM 75.2 °F 53.6 °F 47% 30.40 in 10.0 mi SSE 6.9 mph - N/A   Clear
1:14 PM 77.0 °F 53.6 °F 44% 30.39 in 10.0 mi South 6.9 mph - N/A   Clear
1:34 PM 77.0 °F 55.4 °F 47% 30.39 in 10.0 mi SSE 4.6 mph - N/A   Clear
2:14 PM 77.0 °F 53.6 °F 44% 30.37 in 10.0 mi SSE 9.2 mph - N/A   Clear
2:34 PM 77.0 °F 53.6 °F 44% 30.36 in 10.0 mi SSE 9.2 mph - N/A   Clear
2:54 PM 77.0 °F 53.6 °F 44% 30.36 in 10.0 mi SSE 11.5 mph - N/A   Clear
3:35 PM 77.0 °F 51.8 °F 41% 30.35 in 10.0 mi SSE 10.4 mph - N/A   Clear
4:14 PM 77.0 °F 51.8 °F 41% 30.35 in 10.0 mi SSE 10.4 mph - N/A   Clear
4:34 PM 77.0 °F 51.8 °F 41% 30.35 in 10.0 mi SSE 9.2 mph - N/A   Clear
5:14 PM 77.0 °F 51.8 °F 41% 30.35 in 10.0 mi SSE 6.9 mph - N/A   Clear
5:34 PM 77.0 °F 51.8 °F 41% 30.34 in 10.0 mi SSE 8.1 mph - N/A   Clear
5:54 PM 73.4 °F 53.6 °F 50% 30.34 in 10.0 mi SSE 6.9 mph - N/A   Clear
6:14 PM 73.4 °F 53.6 °F 50% 30.34 in 10.0 mi SSE 6.9 mph - N/A   Clear
6:34 PM 71.6 °F 53.6 °F 53% 30.34 in 10.0 mi SSE 5.8 mph - N/A   Clear
6:54 PM 69.8 °F 53.6 °F 56% 30.34 in 10.0 mi SE 8.1 mph - N/A   Clear
7:14 PM 68.0 °F 51.8 °F 56% 30.35 in 10.0 mi SE 6.9 mph - N/A   Clear
7:34 PM 68.0 °F 51.8 °F 56% 30.35 in 10.0 mi SSE 6.9 mph - N/A   Clear
7:54 PM 64.4 °F 50.0 °F 59% 30.35 in 10.0 mi SE 5.8 mph - N/A   Clear
8:14 PM 62.6 °F 50.0 °F 63% 30.36 in 10.0 mi SE 6.9 mph - N/A   Clear
8:34 PM 62.6 °F 51.8 °F 68% 30.36 in 10.0 mi SE 5.8 mph - N/A   Clear
8:54 PM 60.8 °F 50.0 °F 68% 30.36 in 10.0 mi SE 5.8 mph - N/A   Clear
9:14 PM 60.8 °F 50.0 °F 68% 30.36 in 10.0 mi SE 5.8 mph - N/A   Clear
9:34 PM 59.0 °F 50.0 °F 72% 30.36 in 10.0 mi SE 5.8 mph - N/A   Clear
9:55 PM 59.0 °F 50.0 °F 72% 30.36 in 10.0 mi SE 6.9 mph - N/A   Clear
10:14 PM 59.0 °F 50.0 °F 72% 30.36 in 10.0 mi SE 6.9 mph - N/A   Clear
10:34 PM 59.0 °F 50.0 °F 72% 30.36 in 10.0 mi SSE 6.9 mph - N/A   Clear
10:54 PM 59.0 °F 50.0 °F 72% 30.36 in 10.0 mi SE 8.1 mph - N/A   Clear
11:14 PM 60.8 °F 50.0 °F 68% 30.37 in 10.0 mi SSE 9.2 mph - N/A   Clear
11:34 PM 59.0 °F 50.0 °F 72% 30.37 in 10.0 mi SSE 8.1 mph - N/A   Clear
11:54 PM 59.0 °F 50.0 °F 72% 30.37 in 10.0 mi SSE 6.9 mph - N/A   Clear